Alton, IL

10:39 AM CST on December 06, 2019 (GMT -0600)
Saint Louis Regional

Weather History for KALN - November, 2019

Change the Weather History Date:

Friday, November 15, 2019

  Actual Average Record
Temperature  
Mean Temperature 30 °F -  
Max Temperature 46 °F 53 °F 71 °F (2001)
Min Temperature 15 °F 36 °F 15 °F (2019)
Degree Days  
Heating Degree Days 34    
Moisture  
Dew Point 23 °F    
Average Humidity 89    
Maximum Humidity 100    
Minimum Humidity 46    
Precipitation  
Precipitation 0.00 in - - ()
Sea Level Pressure  
Sea Level Pressure 30.39 in    
Wind  
Wind Speed 1 mph (NW)    
Max Wind Speed 6 mph    
Max Gust Speed -    
Visibility 8 miles    
Events      
Averages and records for this station are not official NWS values.
T = Trace of Precipitation, MM = Missing Value Source: NWS Daily Summary

Daily Weather History Graph

Daily Weather History Graph

Search for Another Location

Airport or City:

Astronomy

Nov. 15, 2019 Rise Set
Actual Time 6:42 AM CST 4:46 PM CST
Civil Twilight 6:14 AM CST 5:14 PM CST
Nautical Twilight 5:41 AM CST 5:47 PM CST
Astronomical Twilight 5:10 AM CST 6:18 PM CST
Moon 7:23 PM CST (11/15) 9:38 AM CST (11/15)
Length of Visible Light 11h 00m
Length of Day
10h 03m
Waning Gibbous, 90% of the Moon is Illuminated
Nov 15
Waning Gibbous
Nov 19
Last Quarter
Nov 26
New
Dec 4
First Quarter
Dec 11
Full

Hourly Weather History & Observations

Time (CST) Temp. Windchill Dew Point Humidity Pressure Visibility Wind Dir Wind Speed Gust Speed Precip Events Conditions
12:15 AM 22.1 °F - 22.1 °F 100% 30.39 in 7.0 mi Calm Calm - N/A   Clear
12:55 AM 21.2 °F - 21.2 °F 100% 30.39 in 7.0 mi Calm Calm - N/A   Clear
1:15 AM 20.8 °F - 20.8 °F 100% 30.40 in 7.0 mi Calm Calm - N/A   Clear
1:35 AM 21.2 °F - 21.2 °F 100% 30.40 in 7.0 mi Calm Calm - N/A   Clear
1:55 AM 20.1 °F - 20.1 °F 100% 30.40 in 7.0 mi Calm Calm - N/A   Clear
2:15 AM 20.7 °F - 20.7 °F 100% 30.39 in 5.0 mi Calm Calm - N/A   Clear
2:35 AM 19.8 °F - 19.8 °F 100% 30.39 in 5.0 mi Calm Calm - N/A   Clear
2:55 AM 19.8 °F - 19.8 °F 100% 30.39 in 5.0 mi Calm Calm - N/A   Clear
3:35 AM 18.7 °F - 18.7 °F 100% 30.40 in 5.0 mi Calm Calm - N/A   Clear
3:55 AM 19.4 °F - 19.4 °F 100% 30.40 in 7.0 mi Calm Calm - N/A   Clear
4:15 AM 18.9 °F - 18.9 °F 100% 30.41 in 7.0 mi Calm Calm - N/A   Clear
4:35 AM 19.0 °F - 19.0 °F 100% 30.42 in 7.0 mi Calm Calm - N/A   Clear
4:55 AM 18.5 °F - 18.5 °F 100% 30.42 in 5.0 mi Calm Calm - N/A   Clear
5:35 AM 17.8 °F - 17.8 °F 100% 30.42 in 7.0 mi Calm Calm - N/A   Clear
5:55 AM 18.3 °F - 18.3 °F 100% 30.42 in 5.0 mi Calm Calm - N/A   Clear
6:15 AM 17.6 °F - 17.6 °F 100% 30.42 in 7.0 mi Calm Calm - N/A   Clear
6:35 AM 17.1 °F - 17.1 °F 100% 30.42 in 7.0 mi Calm Calm - N/A   Clear
6:50 AM 15.8 °F - 15.8 °F 100% 30.42 in 7.0 mi Calm Calm - N/A   Clear
7:50 AM 21.2 °F - 21.2 °F 100% 30.43 in 7.0 mi Calm Calm - N/A   Clear
8:50 AM 28.4 °F - 28.4 °F 100% 30.43 in 7.0 mi Calm Calm - N/A   Clear
9:50 AM 33.8 °F 28.6 °F 30.2 °F 87% 30.44 in 10.0 mi West 5.8 mph - N/A   Clear
10:50 AM 37.4 °F 32.8 °F 26.6 °F 65% 30.43 in 10.0 mi West 5.8 mph - N/A   Clear
11:47 AM 41.0 °F 38.0 °F 26.6 °F 57% 30.41 in 10.0 mi Variable 4.6 mph - N/A   Clear
12:50 PM 42.8 °F 41.1 °F 28.4 °F 57% 30.39 in 10.0 mi Variable 3.5 mph - N/A   Clear
1:50 PM 46.4 °F 44.3 °F 26.6 °F 46% 30.37 in 10.0 mi Variable 4.6 mph - N/A   Partly Cloudy
2:50 PM 46.4 °F 44.3 °F 26.6 °F 46% 30.37 in 10.0 mi Variable 4.6 mph - N/A   Partly Cloudy
3:50 PM 44.6 °F 43.1 °F 26.6 °F 49% 30.36 in 10.0 mi Variable 3.5 mph - N/A   Partly Cloudy
4:50 PM 41.0 °F 39.0 °F 24.8 °F 53% 30.36 in 10.0 mi Variable 3.5 mph - N/A   Partly Cloudy
5:50 PM 33.8 °F - 26.6 °F 75% 30.36 in 10.0 mi Calm Calm - N/A   Partly Cloudy
6:50 PM 32.0 °F 28.7 °F 28.4 °F 87% 30.37 in 10.0 mi North 3.5 mph - N/A   Mostly Cloudy
7:50 PM 30.2 °F - 26.6 °F 86% 30.37 in 10.0 mi Calm Calm - N/A   Mostly Cloudy
8:50 PM 30.2 °F 26.7 °F 26.6 °F 86% 30.37 in 10.0 mi North 3.5 mph - N/A   Scattered Clouds
9:50 PM 28.4 °F - 28.4 °F 100% 30.38 in 10.0 mi Calm Calm - N/A   Mostly Cloudy
10:15 PM 28.9 °F - 27.3 °F 94% 30.37 in 10.0 mi Calm Calm - N/A   Clear
10:35 PM 28.4 °F - 27.5 °F 96% 30.37 in 5.0 mi Calm Calm - N/A   Clear
10:55 PM 28.2 °F - 26.6 °F 94% 30.37 in 10.0 mi Calm Calm - N/A   Clear
11:15 PM 28.0 °F - 27.3 °F 97% 30.37 in 10.0 mi Calm Calm - N/A   Clear
11:35 PM 27.3 °F - 27.3 °F 100% 30.37 in 10.0 mi Calm Calm - N/A   Clear
11:55 PM 26.4 °F - 26.4 °F 100% 30.37 in 10.0 mi Calm Calm - N/A   Clear